Location: NCO
(38.4404°N, 77.1340°W)
Time: 03:56:58
(UTC-04:00)

Envisat - Visible Passes

Search period start: 24 September 2018 00:00
Search period end: 04 October 2018 00:00
Orbit: 764 x 766 km, 98.2° (Epoch: 23 September)

Date Brightness Start Highest point End Pass type
(mag) Time Alt. Az. Time Alt. Az. Time Alt. Az.
24 Sep 3.1 20:19:21 10° S 20:24:24 76° WSW 20:29:31 10° NNW visible
25 Sep 3.3 19:42:55 10° SE 19:47:46 47° ENE 19:52:37 10° N visible
25 Sep 5.5 21:23:32 10° SW 21:27:00 18° W 21:30:29 10° NW visible
26 Sep 4.2 20:45:14 10° S 20:50:01 42° W 20:54:50 10° NNW visible
27 Sep 2.9 20:08:10 10° SSE 20:13:14 85° ENE 20:18:21 10° NNW visible
28 Sep 3.5 19:32:01 10° SE 19:36:39 37° ENE 19:41:18 10° N visible
28 Sep 5.2 21:11:43 10° SSW 21:15:44 23° W 21:19:46 10° NW visible
29 Sep 3.7 20:33:52 10° S 20:38:49 54° W 20:43:47 10° NNW visible
30 Sep 2.9 19:57:04 10° SSE 20:02:05 67° ENE 20:07:08 10° N visible
30 Sep 5.9 21:39:19 10° WSW 21:41:32 13° W 21:43:46 10° WNW visible
01 Oct 3.8 19:21:12 10° SE 19:25:33 30° ENE 19:29:55 10° N visible
01 Oct 4.8 21:00:04 10° SSW 21:04:29 30° W 21:08:55 10° NW visible
02 Oct 3.3 20:22:34 10° S 20:27:37 69° WSW 20:32:41 10° NNW visible
03 Oct 3.1 19:46:03 10° SSE 19:50:56 52° ENE 19:55:52 10° N visible
03 Oct 5.6 21:27:03 10° SW 21:30:15 17° W 21:33:26 10° NW visible
